Portsmouth Weather Center

Moon Phase Calendar



Online Cameras

 


      

Current Conditions in New Castle
6/14/2024 6:16:34 PM

73°F
Feels Like 74
Clouds
Humidity
82%
Pressure
29.74"
Wind
8 mph (S)
Dew Point
67°F
UV Index
0/10 (Low)
Visibility
6 mi

Hourly Forecast

Date & Time Fri, Jun 14
6:00 PM
Fri, Jun 14
7:00 PM
Fri, Jun 14
8:00 PM
Fri, Jun 14
9:00 PM
Fri, Jun 14
10:00 PM
Fri, Jun 14
11:00 PM
Sat, Jun 15
12:00 AM
Sat, Jun 15
1:00 AM
Sat, Jun 15
2:00 AM
Sat, Jun 15
3:00 AM
Sat, Jun 15
4:00 AM
Sat, Jun 15
5:00 AM
Sat, Jun 15
6:00 AM
Sat, Jun 15
7:00 AM
Sat, Jun 15
8:00 AM
Sat, Jun 15
9:00 AM
Sat, Jun 15
10:00 AM
Sat, Jun 15
11:00 AM
Sat, Jun 15
12:00 PM
Sat, Jun 15
1:00 PM
Sat, Jun 15
2:00 PM
Sat, Jun 15
3:00 PM
Sat, Jun 15
4:00 PM
Sat, Jun 15
5:00 PM
Sat, Jun 15
6:00 PM
Sat, Jun 15
7:00 PM
Sat, Jun 15
8:00 PM
Sat, Jun 15
9:00 PM
Sat, Jun 15
10:00 PM
Sat, Jun 15
11:00 PM
Sun, Jun 16
12:00 AM
Sun, Jun 16
1:00 AM
Sun, Jun 16
2:00 AM
Sun, Jun 16
3:00 AM
Sun, Jun 16
4:00 AM
Sun, Jun 16
5:00 AM
Sun, Jun 16
6:00 AM
Sun, Jun 16
7:00 AM
Sun, Jun 16
8:00 AM
Sun, Jun 16
9:00 AM
Sun, Jun 16
10:00 AM
Sun, Jun 16
11:00 AM
Sun, Jun 16
12:00 PM
Sun, Jun 16
1:00 PM
Sun, Jun 16
2:00 PM
Sun, Jun 16
3:00 PM
Sun, Jun 16
4:00 PM
Sun, Jun 16
5:00 PM
Condition
Clouds

Clouds

Clouds

Clouds

Rain

Rain

Clouds

Clouds

Rain

Rain

Rain

Rain

Rain

Clouds

Clouds

Clouds

Clouds

Clouds

Clouds

Clouds

Clouds

Clouds

Clouds

Clouds

Clouds

Clouds

Clouds

Clear

Clear

Clear

Clear

Clear

Clear

Clear

Clear

Clear

Clear

Clear

Clear

Clouds

Clouds

Clouds

Clouds

Clouds

Clouds

Clouds

Clouds

Clouds
Temperature 73°F71°F69°F68°F66°F64°F64°F63°F63°F62°F61°F61°F61°F61°F63°F64°F65°F67°F66°F64°F65°F68°F67°F68°F67°F65°F61°F60°F59°F57°F56°F54°F53°F53°F52°F52°F52°F55°F59°F61°F62°F63°F64°F64°F64°F64°F63°F63°F
Feels Like 74°F72°F70°F69°F66°F64°F65°F64°F63°F62°F62°F61°F61°F62°F63°F64°F64°F66°F65°F64°F64°F67°F66°F67°F66°F65°F61°F59°F57°F55°F54°F52°F51°F51°F50°F49°F50°F53°F57°F60°F61°F61°F62°F62°F63°F63°F62°F62°F
Cloudiness 75%80%85%90%95%100%100%100%100%100%100%100%100%100%100%99%100%96%97%99%100%24%22%31%38%31%26%2%2%1%1%0%0%0%0%0%0%0%0%52%57%72%79%83%83%100%100%99%
Visibility 6 mi6 mi6 mi6 mi6 mi6 mi6 mi6 mi6 mi6 mi6 mi6 mi6 mi6 mi6 mi6 mi6 mi6 mi6 mi6 mi6 mi6 mi6 mi6 mi6 mi6 mi6 mi6 mi6 mi6 mi6 mi6 mi6 mi6 mi6 mi6 mi6 mi6 mi6 mi6 mi6 mi6 mi6 mi6 mi6 mi6 mi6 mi6 mi
Precipitation 54%79%80%36%84%100%80%78%93%66%62%78%90%77%71%28%25%20%20%17%8%0%0%0%0%0%0%0%0%0%0%0%0%0%0%0%0%0%0%0%0%0%0%0%0%0%0%0%
Humidity 82%85%88%90%94%97%97%97%97%96%95%96%94%93%89%80%72%64%65%69%69%60%64%61%64%70%78%67%56%55%55%57%58%59%59%60%62%58%52%48%47%48%46%45%45%47%50%53%
Dew Point 67°F66°F66°F65°F64°F63°F63°F63°F61°F61°F60°F59°F59°F59°F59°F58°F55°F54°F53°F54°F54°F53°F55°F53°F54°F55°F54°F49°F43°F41°F40°F39°F39°F39°F38°F38°F40°F41°F41°F41°F42°F42°F42°F42°F42°F43°F44°F46°F
Pressure 29.74"29.77"29.77"29.8"29.8"29.8"29.8"29.8"29.8"29.8"29.83"29.83"29.85"29.88"29.91"29.91"29.94"29.91"29.94"29.94"29.94"29.94"29.94"29.94"29.94"29.97"30.03"30.06"30.09"30.09"30.12"30.15"30.15"30.15"30.15"30.18"30.21"30.21"30.27"30.27"30.27"30.27"30.27"30.24"30.24"30.21"30.21"30.21"
Wind Speed 9.7 mph10 mph8.5 mph10.1 mph8.6 mph6.3 mph7 mph4.8 mph6.8 mph10.5 mph14 mph15.1 mph10.9 mph9.8 mph8.7 mph9.6 mph10.7 mph9.2 mph7.7 mph5.8 mph4 mph6.7 mph10.9 mph8.8 mph4.6 mph2.4 mph2.1 mph7.2 mph8.6 mph8.2 mph8.9 mph9.1 mph9.5 mph9.5 mph8.9 mph8.8 mph7.9 mph6.2 mph6 mph5.4 mph5.4 mph6 mph7.3 mph9.1 mph10.3 mph11.5 mph12.2 mph12.4 mph
Wind
Direction
177°
S
197°
SSW
202°
SSW
197°
SSW
209°
SSW
203°
SSW
229°
SW
237°
WSW
293°
WNW
343°
NNW

N
17°
NNE
16°
NNE

N

N
12°
NNE
31°
NNE
41°
NE
59°
ENE
66°
ENE
141°
SE
174°
S
165°
SSE
164°
SSE
148°
SSE
74°
ENE
349°
N
337°
NNW
343°
NNW
342°
NNW
343°
NNW
334°
NNW
342°
NNW
341°
NNW
352°
N
359°
N
10°
N

N

N
34°
NE
78°
ENE
99°
E
118°
ESE
134°
SE
144°
SE
148°
SSE
155°
SSE
164°
SSE

Daily Forecast

Date High Low Precip. Humidity
Today
Jun 14

Rain
76 °F
64 °F
100%
91%
Saturday
Jun 15

Rain
68 °F
57 °F
93%
65%
Sunday
Jun 16

Clouds
64 °F
52 °F
0%
46%
Monday
Jun 17

Clouds
70 °F
57 °F
0%
73%
Tuesday
Jun 18

Clouds
71 °F
61 °F
0%
77%
Wednesday
Jun 19

Rain
76 °F
63 °F
100%
76%
Thursday
Jun 20

Rain
80 °F
67 °F
77%
75%
Friday
Jun 21

Rain
81 °F
71 °F
84%
59%
Saturday
Jun 22

Rain
71 °F
63 °F
100%
86%
Sunday
Jun 23

Rain
66 °F
60 °F
35%
93%
Monday
Jun 24

Rain
67 °F
58 °F
38%
74%
Tuesday
Jun 25

Rain
68 °F
60 °F
100%
96%
Wednesday
Jun 26

Rain
76 °F
67 °F
100%
80%
Thursday
Jun 27

Rain
80 °F
68 °F
100%
76%
Friday
Jun 28

Clear
75 °F
63 °F
0%
69%
Saturday
Jun 29

Clear
87 °F
65 °F
0%
50%

Temperature 8-14 Day Outlook



Precipitation 8-14 Day Outlook






About Us
Contact Us
Site Map
Search Site
Advertise With Us
   
Portsmouth.USCoast.info
THE PORTSMOUTH WEBSITE

Copyright 2024, Coastal Town
Privacy    |    Legal